![](https://secure.gravatar.com/avatar/900f734c10632692418d1b47311b6af5.jpg?s=120&d=mm&r=g)
SB KEPS @ AMSAT $ORB10189.O Orbital Elements 10189.OSCAR
HR AMSAT ORBITAL ELEMENTS FOR OSCAR SATELLITES FROM WA5QGD FORT WORTH,TX July 8, 2010 Send Subscribe/unsubscribe to KEPS at http://www.amsat.org/mailman/listinfo/keps BID: ORB10189.O TO ALL RADIO AMATEURS BT
Satellite: AO-07 Catalog number: 07530 Epoch time: 10188.55324501 Element set: 0821 Inclination: 101.3998 deg RA of node: 203.6290 deg Eccentricity: 0.0011612 Arg of perigee: 234.0179 deg Mean anomaly: 125.9816 deg Mean motion: 12.53578788 rev/day Decay rate: -2.7e-07 rev/day^2 Epoch rev: 63100 Checksum: 283
Satellite: FO-29 Catalog number: 24278 Epoch time: 10189.55120049 Element set: 348 Inclination: 098.5151 deg RA of node: 015.7283 deg Eccentricity: 0.0351462 Arg of perigee: 068.4635 deg Mean anomaly: 295.3576 deg Mean motion: 13.52951016 rev/day Decay rate: 9.0e-08 rev/day^2 Epoch rev: 68599 Checksum: 330
Satellite: SO-33 Catalog number: 25509 Epoch time: 10189.57764367 Element set: 749 Inclination: 031.4313 deg RA of node: 027.5550 deg Eccentricity: 0.0353486 Arg of perigee: 117.0302 deg Mean anomaly: 246.6854 deg Mean motion: 14.28313036 rev/day Decay rate: 5.4e-07 rev/day^2 Epoch rev: 61111 Checksum: 289
Satellite: RS-22 Catalog number: 27939 Epoch time: 10189.66157012 Element set: 343 Inclination: 097.8902 deg RA of node: 054.2344 deg Eccentricity: 0.0013887 Arg of perigee: 357.1553 deg Mean anomaly: 002.9561 deg Mean motion: 14.63431349 rev/day Decay rate: -1.3e-07 rev/day^2 Epoch rev: 36209 Checksum: 301
Satellite: VO-52 Catalog number: 28650 Epoch time: 10189.74242202 Element set: 546 Inclination: 097.6910 deg RA of node: 242.3356 deg Eccentricity: 0.0026411 Arg of perigee: 204.0003 deg Mean anomaly: 155.9920 deg Mean motion: 14.81769533 rev/day Decay rate: 1.32e-06 rev/day^2 Epoch rev: 27988 Checksum: 293
Satellite: SO-67 Catalog number: 35870 Epoch time: 10189.70571140 Element set: 891 Inclination: 097.3302 deg RA of node: 238.2709 deg Eccentricity: 0.0004142 Arg of perigee: 043.4184 deg Mean anomaly: 105.0052 deg Mean motion: 15.20945938 rev/day Decay rate: 3.76e-06 rev/day^2 Epoch rev: 4472 Checksum: 290
Satellite: HO-68 Catalog number: 36122 Epoch time: 10189.60642434 Element set: 467 Inclination: 100.4669 deg RA of node: 249.8179 deg Eccentricity: 0.0007184 Arg of perigee: 289.7593 deg Mean anomaly: 070.2750 deg Mean motion: 13.16281144 rev/day Decay rate: -4.5e-07 rev/day^2 Epoch rev: 2703 Checksum: 307
/EX SB KEPS @ AMSAT $ORB10189.D Orbital Elements 10189.MICROS
HR AMSAT ORBITAL ELEMENTS FOR THE MICROSATS FROM WA5QGD FORT WORTH,TX July 8, 2010 Send Subscribe/unsubscribe to KEPS at http://www.amsat.org/mailman/listinfo/keps BID: ORB10189.D TO ALL RADIO AMATEURS BT
Satellite: UO-11 Catalog number: 14781 Epoch time: 10189.45696989 Element set: 282 Inclination: 098.0536 deg RA of node: 241.2619 deg Eccentricity: 0.0009231 Arg of perigee: 163.3748 deg Mean anomaly: 196.7870 deg Mean motion: 14.79815919 rev/day Decay rate: 3.81e-06 rev/day^2 Epoch rev: 41495 Checksum: 350
Satellite: AO-16 Catalog number: 20439 Epoch time: 10188.87321015 Element set: 938 Inclination: 098.3332 deg RA of node: 145.9662 deg Eccentricity: 0.0011853 Arg of perigee: 102.8433 deg Mean anomaly: 257.4072 deg Mean motion: 14.31866227 rev/day Decay rate: 1.3e-07 rev/day^2 Epoch rev: 6834 Checksum: 293
Satellite: LO-19 Catalog number: 20442 Epoch time: 10188.86761218 Element set: 849 Inclination: 098.2922 deg RA of node: 151.6786 deg Eccentricity: 0.0012866 Arg of perigee: 097.9054 deg Mean anomaly: 262.3582 deg Mean motion: 14.32096934 rev/day Decay rate: -5.4e-07 rev/day^2 Epoch rev: 6851 Checksum: 333
Satellite: AO-27 Catalog number: 22825 Epoch time: 10188.87441693 Element set: 572 Inclination: 098.4845 deg RA of node: 136.2898 deg Eccentricity: 0.0007831 Arg of perigee: 203.3101 deg Mean anomaly: 156.7729 deg Mean motion: 14.29301867 rev/day Decay rate: 8.2e-07 rev/day^2 Epoch rev: 87500 Checksum: 325
Satellite: IO-26 Catalog number: 22826 Epoch time: 10188.79619153 Element set: 0309 Inclination: 098.4797 deg RA of node: 136.8077 deg Eccentricity: 0.0008500 Arg of perigee: 198.4450 deg Mean anomaly: 161.6412 deg Mean motion: 14.29557832 rev/day Decay rate: -2.0e-08 rev/day^2 Epoch rev: 87510 Checksum: 322
Satellite: GO-32 Catalog number: 25397 Epoch time: 10188.84100346 Element set: 0229 Inclination: 098.3125 deg RA of node: 195.1529 deg Eccentricity: 0.0001156 Arg of perigee: 150.6564 deg Mean anomaly: 209.4673 deg Mean motion: 14.23180773 rev/day Decay rate: 3.8e-07 rev/day^2 Epoch rev: 62298 Checksum: 304
Satellite: NO-44 Catalog number: 26931 Epoch time: 10188.84240249 Element set: 0503 Inclination: 067.0499 deg RA of node: 150.7569 deg Eccentricity: 0.0005382 Arg of perigee: 263.3389 deg Mean anomaly: 096.7099 deg Mean motion: 14.29602085 rev/day Decay rate: 9.0e-08 rev/day^2 Epoch rev: 45770 Checksum: 329
Satellite: SO-50 Catalog number: 27607 Epoch time: 10188.60008737 Element set: 0218 Inclination: 064.5592 deg RA of node: 294.5165 deg Eccentricity: 0.0035615 Arg of perigee: 067.3240 deg Mean anomaly: 293.1623 deg Mean motion: 14.71553074 rev/day Decay rate: 3.0e-08 rev/day^2 Epoch rev: 40538 Checksum: 290
Satellite: CO-55 Catalog number: 27844 Epoch time: 10188.51890762 Element set: 0885 Inclination: 098.7088 deg RA of node: 197.2002 deg Eccentricity: 0.0010697 Arg of perigee: 108.9575 deg Mean anomaly: 251.2755 deg Mean motion: 14.20716283 rev/day Decay rate: 2.9e-07 rev/day^2 Epoch rev: 36397 Checksum: 342
Satellite: CO-57 Catalog number: 27848 Epoch time: 10188.05841065 Element set: 0835 Inclination: 098.7114 deg RA of node: 195.8424 deg Eccentricity: 0.0010395 Arg of perigee: 114.3822 deg Mean anomaly: 245.8444 deg Mean motion: 14.20508287 rev/day Decay rate: 3.1e-07 rev/day^2 Epoch rev: 36386 Checksum: 315
Satellite: AO-51 Catalog number: 28375 Epoch time: 10188.49826283 Element set: 0719 Inclination: 098.0627 deg RA of node: 180.8376 deg Eccentricity: 0.0085185 Arg of perigee: 035.9015 deg Mean anomaly: 324.7860 deg Mean motion: 14.40689963 rev/day Decay rate: 1.0e-07 rev/day^2 Epoch rev: 31643 Checksum: 332
Satellite: GENESAT1 Catalog number: 29655 Epoch time: 10189.51997394 Element set: 157 Inclination: 040.0175 deg RA of node: 248.6817 deg Eccentricity: 0.0007777 Arg of perigee: 110.4279 deg Mean anomaly: 249.7388 deg Mean motion: 16.00922302 rev/day Decay rate: 1.57746e-03 rev/day^2 Epoch rev: 20340 Checksum: 323
Satellite: CP3 Catalog number: 31129 Epoch time: 10188.81647962 Element set: 621 Inclination: 097.9372 deg RA of node: 227.2848 deg Eccentricity: 0.0103213 Arg of perigee: 168.9156 deg Mean anomaly: 191.4311 deg Mean motion: 14.52275089 rev/day Decay rate: 2.19e-06 rev/day^2 Epoch rev: 17085 Checksum: 310
Satellite: CO-65 Catalog number: 32785 Epoch time: 10189.30229851 Element set: 726 Inclination: 097.8950 deg RA of node: 253.9368 deg Eccentricity: 0.0014158 Arg of perigee: 212.4326 deg Mean anomaly: 147.6007 deg Mean motion: 14.81677215 rev/day Decay rate: 3.73e-06 rev/day^2 Epoch rev: 11861 Checksum: 320
Satellite: KKS-1 Catalog number: 33493 Epoch time: 10189.73907015 Element set: 643 Inclination: 098.0878 deg RA of node: 309.4175 deg Eccentricity: 0.0021387 Arg of perigee: 072.6963 deg Mean anomaly: 287.6592 deg Mean motion: 14.81028783 rev/day Decay rate: 3.71e-06 rev/day^2 Epoch rev: 7867 Checksum: 340
Satellite: SOHLA-1 Catalog number: 33496 Epoch time: 10189.81392391 Element set: 147 Inclination: 098.0595 deg RA of node: 298.6105 deg Eccentricity: 0.0007456 Arg of perigee: 128.7737 deg Mean anomaly: 231.4140 deg Mean motion: 14.69502090 rev/day Decay rate: 2.8e-07 rev/day^2 Epoch rev: 7805 Checksum: 309
/EX SB KEPS @ AMSAT $ORB10189.W Orbital Elements 10189.WEATHER
HR AMSAT ORBITAL ELEMENTS FOR WEATHER SATELLITES FROM WA5QGD FORT WORTH,TX July 8, 2010 Send Subscribe/unsubscribe to KEPS at http://www.amsat.org/mailman/listinfo/keps BID: ORB10189.W TO ALL RADIO AMATEURS BT
Satellite: NOAA-10 Catalog number: 16969 Epoch time: 10188.62113097 Element set: 0126 Inclination: 098.6555 deg RA of node: 217.3958 deg Eccentricity: 0.0012646 Arg of perigee: 148.3993 deg Mean anomaly: 211.7949 deg Mean motion: 14.27420650 rev/day Decay rate: .00000000 rev/day^2 Epoch rev: 23849 Checksum: 310
Satellite: NOAA-11 Catalog number: 19531 Epoch time: 10188.81824941 Element set: 0138 Inclination: 098.7692 deg RA of node: 277.4928 deg Eccentricity: 0.0012445 Arg of perigee: 088.7767 deg Mean anomaly: 271.4839 deg Mean motion: 14.14928871 rev/day Decay rate: -1.45e-06 rev/day^2 Epoch rev: 12405 Checksum: 339
Satellite: NOAA-12 Catalog number: 21263 Epoch time: 10188.77453134 Element set: 0626 Inclination: 098.7647 deg RA of node: 201.9302 deg Eccentricity: 0.0013351 Arg of perigee: 104.9465 deg Mean anomaly: 255.3195 deg Mean motion: 14.25642613 rev/day Decay rate: 4.0e-07 rev/day^2 Epoch rev: 99533 Checksum: 291
Satellite: MET-3/5 Catalog number: 21655 Epoch time: 10189.60340249 Element set: 856 Inclination: 082.5594 deg RA of node: 293.5050 deg Eccentricity: 0.0012312 Arg of perigee: 298.6226 deg Mean anomaly: 061.3587 deg Mean motion: 13.17022984 rev/day Decay rate: 5.1e-07 rev/day^2 Epoch rev: 90849 Checksum: 308
Satellite: MET-2/21 Catalog number: 22782 Epoch time: 10188.68394666 Element set: 0824 Inclination: 082.5471 deg RA of node: 236.1800 deg Eccentricity: 0.0022002 Arg of perigee: 349.6181 deg Mean anomaly: 010.4520 deg Mean motion: 13.83645106 rev/day Decay rate: -1.8e-07 rev/day^2 Epoch rev: 85091 Checksum: 284
Satellite: OKEAN-4 Catalog number: 23317 Epoch time: 10188.83568885 Element set: 278 Inclination: 082.5418 deg RA of node: 334.5836 deg Eccentricity: 0.0022276 Arg of perigee: 169.3675 deg Mean anomaly: 190.8042 deg Mean motion: 14.82832778 rev/day Decay rate: 1.28e-06 rev/day^2 Epoch rev: 84951 Checksum: 344
